When you browse on this site, cookies collect data to enhance your experience and personalize the content and advertising you see.
Visit our Privacy Policy to learn more. By continuing to use the site, you agree to this use of cookies and data.
  • In Hungary
  • List of Countries
  • For 7 days
  • Water Temperature
  • Satellite Maps
  • Weather Map
  • News
  • Weather Widgets
  • user-avatar
    Login

    Hourly Weather Oran

    Today, 25 April, Thursday

    Time Temperature Precipitation Wind Pressure Humidity
    00:00 +15°C° 0 mm 1 mps 751 mmHg 61%
    01:00 +15°C° 0 mm 2 mps 751 mmHg 61%
    02:00 +15°C° 0 mm 2 mps 751 mmHg 61%
    03:00 +15°C° 0 mm 2 mps 751 mmHg 61%
    04:00 +15°C° 0 mm 2 mps 751 mmHg 61%
    05:00 +15°C° 0 mm 2 mps 751 mmHg 61%
    06:00 +16°C° 0 mm 2 mps 751 mmHg 61%
    07:00 +18°C° 0 mm 2 mps 751 mmHg 54%
    08:00 +20°C° 0 mm 3 mps 751 mmHg 47%
    09:00 +22°C° 0 mm 3 mps 752 mmHg 40%
    10:00 +23°C° 0 mm 4 mps 752 mmHg 37%
    11:00 +26°C° 0 mm 5 mps 752 mmHg 34%
    12:00 +27°C° 0 mm 6 mps 752 mmHg 31%
    13:00 +26°C° 0 mm 6 mps 751 mmHg 33%
    14:00 +26°C° 0 mm 6 mps 751 mmHg 35%
    15:00 +26°C° 0 mm 6 mps 751 mmHg 36%
    16:00 +23°C° 0 mm 6 mps 751 mmHg 45%
    17:00 +21°C° 0 mm 6 mps 751 mmHg 53%
    18:00 +20°C° 0 mm 6 mps 752 mmHg 62%
    19:00 +19°C° 0 mm 5 mps 753 mmHg 67%
    20:00 +17°C° 0 mm 5 mps 754 mmHg 73%
    21:00 +16°C° 0 mm 5 mps 754 mmHg 78%
    22:00 +16°C° 0 mm 5 mps 755 mmHg 78%
    23:00 +16°C° 0 mm 5 mps 755 mmHg 78%

    Tomorrow, 26 April, Friday

    Time Temperature Precipitation Wind Pressure Humidity
    00:00 +16°C° 0 mm 5 mps 756 mmHg 78%
    01:00 +15°C° 0 mm 5 mps 756 mmHg 77%
    02:00 +15°C° 0 mm 5 mps 756 mmHg 76%
    03:00 +15°C° 0 mm 5 mps 756 mmHg 75%
    04:00 +15°C° 0 mm 4 mps 756 mmHg 74%
    05:00 +15°C° 0 mm 4 mps 756 mmHg 73%
    06:00 +16°C° 0 mm 3 mps 756 mmHg 73%
    07:00 +17°C° 0 mm 3 mps 757 mmHg 67%
    08:00 +18°C° 0 mm 3 mps 757 mmHg 62%
    09:00 +19°C° 0 mm 3 mps 758 mmHg 57%
    10:00 +20°C° 0 mm 3 mps 757 mmHg 54%
    11:00 +21°C° 0 mm 4 mps 757 mmHg 51%
    12:00 +21°C° 0 mm 4 mps 757 mmHg 49%
    13:00 +21°C° 0 mm 4 mps 757 mmHg 49%
    14:00 +21°C° 0 mm 3 mps 757 mmHg 49%
    15:00 +21°C° 0 mm 3 mps 756 mmHg 49%
    16:00 +21°C° 0 mm 3 mps 756 mmHg 50%
    17:00 +20°C° 0 mm 4 mps 756 mmHg 51%
    18:00 +19°C° 0 mm 4 mps 756 mmHg 52%
    19:00 +18°C° 0 mm 3 mps 757 mmHg 53%
    20:00 +18°C° 0 mm 3 mps 757 mmHg 55%
    21:00 +17°C° 0 mm 2 mps 758 mmHg 57%
    22:00 +16°C° 0 mm 2 mps 758 mmHg 58%
    23:00 +16°C° 0 mm 2 mps 758 mmHg 59%

    Day after tomorrow, 27 April, Saturday

    Time Temperature Precipitation Wind Pressure Humidity
    00:00 +15°C° 0 mm 1 mps 758 mmHg 60%
    01:00 +15°C° 0 mm 1 mps 758 mmHg 60%
    02:00 +15°C° 0 mm 2 mps 757 mmHg 60%
    03:00 +14°C° 0 mm 2 mps 757 mmHg 61%
    04:00 +14°C° 0 mm 2 mps 757 mmHg 62%
    05:00 +15°C° 0 mm 2 mps 757 mmHg 63%
    06:00 +14°C° 0 mm 3 mps 757 mmHg 65%
    07:00 +17°C° 0 mm 3 mps 757 mmHg 56%
    08:00 +18°C° 0 mm 3 mps 758 mmHg 48%
    09:00 +20°C° 0 mm 4 mps 758 mmHg 40%
    10:00 +21°C° 0 mm 4 mps 758 mmHg 37%
    11:00 +22°C° 0 mm 5 mps 758 mmHg 34%
    12:00 +23°C° 0 mm 6 mps 757 mmHg 31%
    13:00 +23°C° 0 mm 6 mps 757 mmHg 33%
    14:00 +23°C° 0 mm 7 mps 756 mmHg 35%
    15:00 +23°C° 0 mm 7 mps 756 mmHg 36%
    16:00 +22°C° 0 mm 7 mps 756 mmHg 41%
    17:00 +21°C° 0 mm 6 mps 756 mmHg 46%
    18:00 +20°C° 0 mm 6 mps 756 mmHg 50%
    19:00 +19°C° 0 mm 5 mps 756 mmHg 56%
    20:00 +18°C° 0 mm 4 mps 756 mmHg 61%
    21:00 +17°C° 0 mm 4 mps 757 mmHg 66%
    22:00 +16°C° 0 mm 3 mps 756 mmHg 69%
    23:00 +16°C° 0 mm 3 mps 756 mmHg 71%

    28 April, Sunday

    Time Temperature Precipitation Wind Pressure Humidity
    00:00 +14°C° 0 mm 3 mps 756 mmHg 73%
    01:00 +15°C° 0 mm 2 mps 755 mmHg 73%
    02:00 +15°C° 0 mm 2 mps 755 mmHg 74%
    03:00 +14°C° 0 mm 2 mps 754 mmHg 74%
    04:00 +15°C° 0 mm 2 mps 754 mmHg 73%
    05:00 +15°C° 0 mm 2 mps 754 mmHg 71%
    06:00 +16°C° 0 mm 2 mps 754 mmHg 70%
    07:00 +18°C° 0 mm 3 mps 754 mmHg 62%
    08:00 +20°C° 0 mm 3 mps 754 mmHg 53%
    09:00 +22°C° 0 mm 3 mps 754 mmHg 45%
    10:00 +23°C° 0 mm 4 mps 753 mmHg 42%
    11:00 +25°C° 0 mm 5 mps 753 mmHg 39%
    12:00 +26°C° 0 mm 6 mps 752 mmHg 36%
    13:00 +26°C° 0 mm 6 mps 752 mmHg 37%
    14:00 +26°C° 0 mm 6 mps 751 mmHg 37%
    15:00 +26°C° 0 mm 7 mps 751 mmHg 37%
    16:00 +24°C° 0 mm 7 mps 751 mmHg 41%
    17:00 +23°C° 0 mm 7 mps 751 mmHg 44%
    18:00 +21°C° 0 mm 6 mps 751 mmHg 48%
    19:00 +20°C° 0 mm 6 mps 751 mmHg 54%
    20:00 +19°C° 0 mm 5 mps 752 mmHg 59%
    21:00 +18°C° 0 mm 4 mps 752 mmHg 65%
    22:00 +17°C° 0 mm 3 mps 752 mmHg 67%
    23:00 +17°C° 0 mm 3 mps 752 mmHg 70%

    29 April, Monday

    Time Temperature Precipitation Wind Pressure Humidity
    00:00 +17°C° 0 mm 2 mps 752 mmHg 73%
    01:00 +16°C° 0 mm 2 mps 751 mmHg 73%
    02:00 +16°C° 0 mm 2 mps 751 mmHg 73%
    03:00 +16°C° 0 mm 2 mps 751 mmHg 73%
    04:00 +16°C° 0 mm 3 mps 751 mmHg 73%
    05:00 +17°C° 0 mm 3 mps 751 mmHg 73%
    06:00 +17°C° 0 mm 4 mps 750 mmHg 73%
    07:00 +18°C° 0 mm 4 mps 751 mmHg 66%
    08:00 +20°C° 0 mm 4 mps 751 mmHg 58%
    09:00 +21°C° 0 mm 4 mps 751 mmHg 50%
    10:00 +22°C° 0 mm 4 mps 751 mmHg 48%
    11:00 +23°C° 0 mm 5 mps 751 mmHg 46%
    12:00 +25°C° 0 mm 5 mps 750 mmHg 44%
    13:00 +24°C° 0 mm 6 mps 750 mmHg 45%
    14:00 +24°C° 0 mm 6 mps 749 mmHg 46%
    15:00 +23°C° 0 mm 6 mps 749 mmHg 48%
    16:00 +22°C° 0 mm 6 mps 749 mmHg 51%
    17:00 +21°C° 0 mm 5 mps 749 mmHg 55%
    18:00 +20°C° 0 mm 5 mps 749 mmHg 59%
    19:00 +19°C° 0 mm 4 mps 750 mmHg 64%
    20:00 +18°C° 0 mm 3 mps 750 mmHg 68%
    21:00 +18°C° 0 mm 3 mps 750 mmHg 73%
    22:00 +17°C° 0 mm 2 mps 750 mmHg 75%
    23:00 +17°C° 0 mm 2 mps 750 mmHg 77%

    30 April, Tuesday

    Time Temperature Precipitation Wind Pressure Humidity
    00:00 +16°C° 0 mm 1 mps 750 mmHg 79%
    01:00 +16°C° 0 mm 2 mps 750 mmHg 80%
    02:00 +16°C° 0 mm 2 mps 750 mmHg 80%
    03:00 +16°C° 0 mm 3 mps 749 mmHg 81%
    04:00 +16°C° 0 mm 3 mps 749 mmHg 81%
    05:00 +16°C° 0 mm 2 mps 749 mmHg 81%
    06:00 +17°C° 0 mm 2 mps 749 mmHg 81%
    07:00 +18°C° 0 mm 2 mps 749 mmHg 74%
    08:00 +19°C° 0 mm 2 mps 749 mmHg 66%
    09:00 +21°C° 0 mm 3 mps 749 mmHg 58%
    10:00 +22°C° 0.1 mm 3 mps 749 mmHg 55%
    11:00 +23°C° 0.1 mm 4 mps 749 mmHg 51%
    12:00 +25°C° 0.1 mm 5 mps 749 mmHg 48%
    13:00 +25°C° 0.2 mm 5 mps 748 mmHg 49%
    14:00 +23°C° 0.2 mm 6 mps 748 mmHg 51%
    15:00 +23°C° 0.2 mm 6 mps 747 mmHg 52%
    16:00 +22°C° 0 mm 5 mps 747 mmHg 54%
    17:00 +22°C° 0 mm 5 mps 747 mmHg 57%
    18:00 +21°C° 0 mm 4 mps 747 mmHg 59%
    19:00 +20°C° 0 mm 4 mps 748 mmHg 64%
    20:00 +19°C° 0 mm 3 mps 748 mmHg 70%
    21:00 +18°C° 0 mm 2 mps 748 mmHg 75%
    22:00 +17°C° 0 mm 2 mps 748 mmHg 76%
    23:00 +17°C° 0 mm 2 mps 748 mmHg 77%
    Show more